Flag for Switzerland Weather past 2 weeks in Lancy, Geneva, Switzerland

55 °F

Broken clouds.

Feels Like: 55 °F
Forecast: 38 / 51 °F
Wind: 2 mph from North

Location: Geneva Cointrin Airport

Current Time: Oct 13, 2015 at 11:45:59 AM

Latest Report: Oct 13, 2015 at 10:50 AM

Visibility: N/A

Pressure: 29.92 "Hg

Humidity: 82%

Dew point: 50 °F

Location of LancyLocation

Historic Weather in Lancy — Graph


Lancy temperature yesterday

Maximum temperature yesterday: 59 °F (at 1:20 PM)
Minimum temperature yesterday: 45 °F (at 2:20 AM)
Average temperature yesterday: 52 °F

Past Weeks' High & Low Weather Summary

High64 °F (Oct 4, 2:50 PM)100% (Oct 6, 1:50 AM)30.36 "Hg (Oct 6, 1:50 AM)
Low41 °F (Sep 30, 4:50 AM)45% (Sep 28, 5:20 PM)29.77 "Hg (Oct 6, 7:50 AM)
Average54 °F77%30.06 "Hg
* Reported Sep 28 10:20 AM — Oct 13 10:20 AM, Lancy, Weather by CustomWeather, © 2015

Note: Actual official high and low records may vary slightly from our data, if they occured in-between our weather recording intervals... More about our weather records


Lancy weather history for previous 24 hours

Time TempWeatherWind HumidityBarometerVisibility
10:20 AM
Tue, Oct 13
54 °FBroken clouds.3 mph82%29.92 "HgN/A
9:50 AM54 °FPartly sunny.1 mph82%29.92 "HgN/A
9:20 AM54 °FBroken clouds.2 mph82%29.92 "HgN/A
8:50 AM52 °FBroken clouds.2 mph88%29.92 "HgN/A
8:20 AM52 °FPartly cloudy.2 mph88%29.92 "HgN/A
7:50 AM52 °FMostly cloudy.1 mph88%29.92 "HgN/A
7:20 AM52 °FPartly cloudy.2 mph88%29.92 "HgN/A
6:50 AM50 °FPartly cloudy.3 mph94%29.92 "HgN/A
6:20 AM50 °FPassing clouds.2 mph94%29.92 "HgN/A
5:20 AM50 °FPassing clouds.2 mph94%29.92 "Hg6 mi
4:50 AM50 °FPassing clouds.3 mph94%29.92 "HgN/A
4:20 AM50 °FPassing clouds.2 mph94%29.92 "Hg6 mi
3:50 AM50 °FPassing clouds.3 mph94%29.92 "Hg6 mi
2:50 AM50 °FPassing clouds.1 mph94%29.95 "Hg6 mi
2:20 AM50 °FClear.2 mph88%29.95 "Hg6 mi
1:50 AM50 °FClear.2 mph94%29.95 "Hg6 mi
1:20 AM50 °FClear.2 mph94%29.95 "Hg6 mi
12:50 AM50 °FClear.1 mph94%29.95 "Hg6 mi
12:20 AM50 °FClear.2 mph94%29.95 "Hg10 mi
11:50 PM
Mon, Oct 12
50 °FClear.1 mph94%29.95 "Hg10 mi
11:20 PM52 °FClear.1 mph88%29.95 "Hg10 mi
10:50 PM52 °FClear.2 mph88%29.95 "Hg10 mi
10:20 PM52 °FClear.1 mph88%29.95 "Hg10 mi
9:50 PM54 °FClear.2 mph88%29.95 "Hg10 mi
9:20 PM52 °FClear.1 mph88%29.95 "Hg10 mi
8:50 PM52 °FClear.1 mph88%29.95 "Hg10 mi
8:20 PM54 °FPassing clouds.2 mph88%29.95 "HgN/A
7:50 PM55 °FPartly sunny.No wind77%29.95 "HgN/A
7:20 PM55 °FPartly sunny.3 mph77%29.95 "HgN/A
6:50 PM57 °FBroken clouds.1 mph72%29.92 "HgN/A
6:20 PM57 °FBroken clouds.1 mph72%29.92 "HgN/A
5:50 PM57 °FBroken clouds.3 mph72%29.92 "HgN/A
5:20 PM59 °FPartly sunny.3 mph68%29.95 "HgN/A
4:50 PM59 °FPartly sunny.2 mph68%29.92 "HgN/A
3:50 PM59 °FBroken clouds.3 mph68%29.92 "HgN/A
3:20 PM57 °FPartly sunny.2 mph67%29.92 "HgN/A
2:50 PM57 °FPartly sunny.3 mph67%29.95 "HgN/A
2:20 PM57 °FPartly sunny.5 mph67%29.92 "HgN/A
1:50 PM59 °FPartly sunny.2 mph63%29.95 "HgN/A
1:20 PM59 °FPartly sunny.3 mph68%29.95 "HgN/A
12:50 PM57 °FBroken clouds.2 mph72%29.95 "HgN/A
12:20 PM55 °FBroken clouds.3 mph72%29.95 "HgN/A
11:50 AM55 °FBroken clouds.2 mph77%29.95 "HgN/A
11:20 AM55 °FBroken clouds.2 mph72%29.95 "HgN/A
Weather by CustomWeather, © 2015

See weather overviewHow to use our weather pages